Satellite: CP3
Catalog number: 31128
Epoch time:      07290.85743542
Element set:    0160
Inclination:      098.0721 deg
RA of node:       359.1862 deg
Eccentricity:    0.0103223
Arg of perigee:   007.6652 deg
Mean anomaly:     352.6081 deg
Mean motion:   14.51872675 rev/day
Decay rate:       -4.8e-07 rev/day^2
Epoch rev:           02662
Checksum:              289

Satellite: LIBERT
Catalog number: 31129
Epoch time:      07291.19090455
Element set:     445
Inclination:      098.0735 deg
RA of node:       359.5236 deg
Eccentricity:    0.0103179
Arg of perigee:   006.5633 deg
Mean anomaly:     353.6868 deg
Mean motion:   14.51966306 rev/day
Decay rate:       3.37e-06 rev/day^2
Epoch rev:            2665
Checksum:              311

/EX
SB KEPS @ AMSAT  $ORB07291.W
Orbital Elements  07291.WEATHER

HR AMSAT ORBITAL ELEMENTS FOR WEATHER SATELLITES
FROM WA5QGD FORT WORTH,TX October 18, 2007
Send Subscribe/unsubscribe to KEPS at 
http://www.amsat.org/mailman/listinfo/keps
BID: ORB07291.W
TO ALL RADIO AMATEURS BT

Satellite: NOAA-10
Catalog number: 16969
Epoch time:      07290.62852407
Element set:    0853
Inclination:      098.7419 deg
RA of node:       307.8662 deg
Eccentricity:    0.0012333
Arg of perigee:   167.5183 deg
Mean anomaly:     192.6293 deg
Mean motion:   14.27337011 rev/day
Decay rate:       -1.7e-07 rev/day^2
Epoch rev:           09669
Checksum:              324

Satellite: NOAA-11
Catalog number: 19531
Epoch time:      07290.75732186
Element set:    0887
Inclination:      098.8091 deg
RA of node:       018.3793 deg
Eccentricity:    0.0012323
Arg of perigee:   044.2899 deg
Mean anomaly:     315.9265 deg
Mean motion:   14.14852724 rev/day
Decay rate:      -2.51e-06 rev/day^2
Epoch rev:           98348
Checksum:              334

Satellite: NOAA-12
Catalog number: 21263
Epoch time:      07290.92456451
Element set:    0391
Inclination:      098.7612 deg
RA of node:       288.0072 deg
Eccentricity:    0.0013377
Arg of perigee:   111.1524 deg
Mean anomaly:     249.1057 deg
Mean motion:   14.25497204 rev/day
Decay rate:      -1.00e-06 rev/day^2
Epoch rev:           85373
Checksum:              284

Satellite: MET-3/5
Catalog number: 21655
Epoch time:      07290.93913390
Element set:    0399
Inclination:      082.5483 deg
RA of node:       276.2109 deg
Eccentricity:    0.0012009
Arg of perigee:   264.0590 deg
Mean anomaly:     095.9163 deg
Mean motion:   13.17012772 rev/day
Decay rate:        5.1e-07 rev/day^2
Epoch rev:           77756
Checksum:              311

Satellite: MET-2/21
Catalog number: 22782
Epoch time:      07290.58132706
Element set:     961
Inclination:      082.5459 deg
RA of node:       304.8237 deg
Eccentricity:    0.0020920
Arg of perigee:   252.0434 deg
Mean anomaly:     107.8444 deg
Mean motion:   13.83619573 rev/day
Decay rate:        1.0e-08 rev/day^2
Epoch rev:           71344
Checksum:              291

Satellite: OKEAN-4
Catalog number: 23317
Epoch time:      07290.74949081
Element set:     399
Inclination:      082.5417 deg
RA of node:       182.1971 deg
Eccentricity:    0.0021178
Arg of perigee:   205.4736 deg
Mean anomaly:     154.5466 deg
Mean motion:   14.82541712 rev/day
Decay rate:       2.73e-06 rev/day^2
Epoch rev:           70221
Checksum:              303

Satellite: NOAA-14
Catalog number: 23455
Epoch time:      07290.73164771
Element set:    0862
Inclination:      098.9764 deg
RA of node:       357.4939 deg
Eccentricity:    0.0010242
Arg of perigee:   112.7717 deg
Mean anomaly:     247.4525 deg
Mean motion:   14.13728802 rev/day
Decay rate:       2.14e-06 rev/day^2
Epoch rev:           65995
Checksum:              328

Satellite: SICH-1
Catalog number: 23657
Epoch time:      07291.68493648
Element set:     200
Inclination:      082.5276 deg
RA of node:       322.2781 deg
Eccentricity:    0.0023520
Arg of perigee:   193.1500 deg
Mean anomaly:     166.9098 deg
Mean motion:   14.81518757 rev/day
Decay rate:       1.11e-06 rev/day^2
Epoch rev:           65431
Checksum:              297

Satellite: NOAA-15
Catalog number: 25338
Epoch time:      07290.86730342
Element set:    0205
Inclination:      098.5414 deg
RA of node:       284.1473 deg
Eccentricity:    0.0011267
Arg of perigee:   035.9973 deg
Mean anomaly:     324.1935 deg
Mean motion:   14.24668423 rev/day
Decay rate:        4.4e-07 rev/day^2
Epoch rev:           49015
Checksum:              303

Satellite: RESURS
Catalog number: 25394
Epoch time:      07290.73790358
Element set:     763
Inclination:      098.4261 deg
RA of node:       340.3294 deg
Eccentricity:    0.0001028
Arg of perigee:   150.7773 deg
Mean anomaly:     209.3463 deg
Mean motion:   14.24147161 rev/day
Decay rate:       -4.0e-08 rev/day^2
Epoch rev:           48179
Checksum:              298

Satellite: FENGYUN1
Catalog number: 25730
Epoch time:      07291.75089219
Element set:     247
Inclination:      098.7019 deg
RA of node:       271.0047 deg
Eccentricity:    0.0019088
Arg of perigee:   130.0062 deg
Mean anomaly:     230.2787 deg
Mean motion:   14.07623461 rev/day
Decay rate:        1.9e-07 rev/day^2
Epoch rev:           43485
Checksum:              291

Satellite: OKEAN-0
Catalog number: 25860
Epoch time:      07290.60284177
Element set:     187
Inclination:      097.7371 deg
RA of node:       287.1747 deg
Eccentricity:    0.0001453
Arg of perigee:   038.2212 deg
Mean anomaly:     321.9093 deg
Mean motion:   14.73478734 rev/day
Decay rate:        4.2e-07 rev/day^2
Epoch rev:           44352
Checksum:              301

Satellite: NOAA-16
Catalog number: 26536
Epoch time:      07290.81089634
Element set:    0647
Inclination:      099.1334 deg
RA of node:       269.9749 deg
Eccentricity:    0.0010335
Arg of perigee:   184.6345 deg
Mean anomaly:     175.4732 deg
Mean motion:   14.12452883 rev/day
Decay rate:      -2.48e-06 rev/day^2
Epoch rev:           36441
Checksum:              331

Satellite: NOAA-17
Catalog number: 27453
Epoch time:      07290.78758697
Element set:    0645
Inclination:      098.5675 deg
RA of node:       357.0761 deg
Eccentricity:    0.0012763
Arg of perigee:   097.9577 deg
Mean anomaly:     262.3036 deg
Mean motion:   14.23917431 rev/day
Decay rate:       1.61e-06 rev/day^2
Epoch rev:           27616
Checksum:              348

Satellite: NOAA-18
Catalog number: 28654
Epoch time:      07290.78024524
Element set:    0166
Inclination:      098.8392 deg
RA of node:       230.0538 deg
Eccentricity:    0.0013518
Arg of perigee:   283.8148 deg
Mean anomaly:     076.1531 deg
Mean motion:   14.11101983 rev/day
Decay rate:       -7.6e-07 rev/day^2
Epoch rev:           12414
Checksum:              298

/EX
SB KEPS @ AMSAT  $ORB07291.M
Orbital Elements  07291.MISC

HR AMSAT ORBITAL ELEMENTS FOR MANNED AND MISCELLANEOUS SATELLITES
FROM WA5QGD FORT WORTH,TX October 18, 2007
Send Subscribe/unsubscribe to KEPS at 
http://www.amsat.org/mailman/listinfo/keps
BID: ORB07291.M
TO ALL RADIO AMATEURS BT

Satellite: HUBBLE
Catalog number: 20580
Epoch time:      07290.87768244
Element set:     984
Inclination:      028.4667 deg
RA of node:       110.0459 deg
Eccentricity:    0.0003448
Arg of perigee:   315.7857 deg
Mean anomaly:     044.2454 deg
Mean motion:   15.00290443 rev/day
Decay rate:       3.27e-06 rev/day^2
Epoch rev:           75840
Checksum:              304

Satellite: UARS
Catalog number: 21701
Epoch time:      07290.92189061
Element set:    0208
Inclination:      056.9727 deg
RA of node:       140.9188 deg
Eccentricity:    0.0095647
Arg of perigee:   071.4678 deg
Mean anomaly:     289.6746 deg
Mean motion:   15.49294680 rev/day
Decay rate:      5.733e-05 rev/day^2
Epoch rev:           88476
Checksum:              355

Satellite: PO-34
Catalog number: 25520
Epoch time:      07290.53863914
Element set:     846
Inclination:      028.4595 deg
RA of node:       009.8255 deg
Eccentricity:    0.0005796
Arg of perigee:   152.4085 deg
Mean anomaly:     207.6813 deg
Mean motion:   15.17063885 rev/day
Decay rate:       4.32e-06 rev/day^2
Epoch rev:           49612
Checksum:              322

Satellite: ISS
Catalog number: 25544
Epoch time:      07292.03058130
Element set:     186
Inclination:      051.6371 deg
RA of node:       185.2020 deg
Eccentricity:    0.0003081
Arg of perigee:   103.5402 deg
Mean anomaly:     032.4322 deg
Mean motion:   15.75768142 rev/day
Decay rate:     1.4417e-04 rev/day^2
Epoch rev:           51031
Checksum:              239

Satellite: OO-38
Catalog number: 26063
Epoch time:      07291.44209784
Element set:      37
Inclination:      100.2255 deg
RA of node:       316.8326 deg
Eccentricity:    0.0036829
Arg of perigee:   172.4841 deg
Mean anomaly:     187.6899 deg
Mean motion:   14.35817241 rev/day
Decay rate:       -2.8e-07 rev/day^2
Epoch rev:           40473
Checksum:              318

Satellite: UWE-1
Catalog number: 28892
Epoch time:      07291.74934750
Element set:     876
Inclination:      098.1140 deg
RA of node:       185.8361 deg
Eccentricity:    0.0018458
Arg of perigee:   087.3160 deg
Mean anomaly:     273.0186 deg
Mean motion:   14.59550571 rev/day
Decay rate:       2.02e-06 rev/day^2
Epoch rev:           10523
Checksum:              309

Satellite: CO-58
Catalog number: 28895
Epoch time:      07291.72422313
Element set:     852
Inclination:      098.1155 deg
RA of node:       186.0711 deg
Eccentricity:    0.0018939
Arg of perigee:   086.8800 deg
Mean anomaly:     273.4545 deg
Mean motion:   14.59593473 rev/day
Decay rate:        6.4e-07 rev/day^2
Epoch rev:           10511
Checksum:              325

